CZ-6A DEB

Satellite information

Favourite Embed

Satellite Type and Status

DEBRISIN ORBIT

Key statistics

Satellite CZ-6A DEB at a glance.

Uptime

969

Days in orbit

Revolutions

≈ 14.6

Per day

Orbit

SSO

Sun Synchronous Orbit

Inclination

98.6

Latest

Satellite identification and parameters

Extended collection of information and parameters for CZ-6A DEB.

Object identification

Identified? True

Debris? True

Object name: CZ-6A DEB

International designator: 2022-151KY

Object number (NORAD): 54548

Object ID (CCSDS): 54548

Country: PEOPLES REPUBLIC OF CHINA (PRC)

Current information (Y/N): Y

RCS size: SMALL

Orbital parameters

Period: 98.43 minutes

Inclination: 98.6068 deg

SMA: 7061.742 km

Apoapsis: 709.553 km

Periapsis: 657.662 km

RAAN: 220.2078 deg

Eccentricy: 0.0036741

Argument of periapsis: 267.8015 deg

Mean anomaly: 91.8978 deg

Mean motion: 14.62968488 rev/day

Mean motion (dot): 0.00010507 rev/day2

B* drag term: 0.0020393 1/REarth

Two-line elements (TLE)

Creation date: July 5, 2025, 5:45 p.m.

Reference frame: TEME

Reference center: EARTH

Epoch: July 5, 2025, 2:37 p.m. UTC

TLE line 0: 0 CZ-6A DEB

TLE line 1: 1 54548U 22151KY 25186.60908535 .00010507 00000-0 20393-2 0 9997

TLE line 2: 2 54548 98.6068 220.2078 0036741 267.8015 91.8978 14.62968488139142

Live tracking on map

Real-time ground track for satellite CZ-6A DEB.

In-orbit conjunctions

A list of the most updated potential collisions computed for object CZ-6A DEB.

Target Orbit TCA Probability of collision Miss distance Type
KSLV-II R/B SSO 2025-06-14 01:49:34 0.0001431004 719.0 (m) ROCKET BODY
CZ-4C R/B LEO 2024-08-19 01:59:34 0.0003242802 151.0 (m) ROCKET BODY

Associated space launch

Chinese satellite reported for atmospheric/ocean/environmental/spatial parameter research purposes, details TBD.

CZ-6A DEB was lifted into orbit during the mission ‘Long March 6A | Yunhai 3’, on board a Long March 6A space rocket.

The launch took place on Nov. 11, 2022, 10:52 p.m. from Launch Complex 9A.

For more information about the launch, click the button.

Launch to space Long March 6A | Yunhai 3
Long March 6A | Yunhai 3

Agency: N/A

Status: Launch Successful

Launch date: Nov. 11, 2022, 10:52 p.m. UTC

Rocket: Long March 6A

Launch pad: Launch Complex 9A

Location: Taiyuan Satellite Launch Center, People's Republic of China

...

Latest news about this satellite

There are no fresh news available about this satellite. Check back as we update our databases every day.


Newsletter sign-up

Weekly statistics, charts and insights to help you stay on top of the space industry.